{"data":{"norad_id":64218,"epoch":"2026-05-25T03:19:19.105248Z","epoch_age_seconds":67018,"freshness":"FRESH","line1":"1 64218U 25117R   26145.13841557  .00015980  00000+0  55029-3 0  9995","line2":"2 64218  53.1586  44.2760 0001064  92.5600 267.5523 15.30212669 56238","mean_motion":15.30212669,"eccentricity":0.0001064,"inclination_deg":53.1586,"raan_deg":44.276,"arg_perigee_deg":92.56,"mean_anomaly_deg":267.5523,"bstar":0.00055029,"rev_number":5623,"period_min":94.104566585574,"perigee_km":474.44804969453,"apogee_km":475.90643496529,"semimajor_km":6853.3142423299,"source":"CELESTRAK","updated_at":"2026-05-25T13:38:20.320279Z"}}